Time,TemperatureF,DewpointF,PressureIn,WindDirection,WindDirectionDegrees,WindSpeedMPH,WindSpeedGustMPH,Humidity,HourlyPrecipIn,Conditions,Clouds,dailyrainin,SoftwareType,DateUTC
2013-05-01 09:22:00,60.0,50.0,29.94,North,7,6.0,13.0,69,0.00,,,0.00,,2013-05-01 14:22:00,
2013-05-01 09:32:00,60.0,50.0,29.94,North,7,6.0,13.0,69,0.00,,,0.00,,2013-05-01 14:32:00,
2013-05-01 09:42:00,60.0,50.0,29.94,North,7,6.0,13.0,69,0.00,,,0.00,,2013-05-01 14:42:00,
2013-05-01 09:52:00,62.0,51.0,29.95,NNE,26,5.0,10.0,66,0.00,,,0.00,,2013-05-01 14:52:00,
2013-05-01 10:01:00,62.0,50.0,29.96,NNE,21,4.0,10.0,65,0.00,,,0.00,,2013-05-01 15:01:00,
2013-05-01 10:11:00,62.0,50.0,29.96,NNE,21,4.0,10.0,65,0.00,,,0.00,,2013-05-01 15:11:00,
2013-05-01 10:21:00,63.0,51.0,29.96,NNE,21,3.0,10.0,65,0.00,,,0.00,,2013-05-01 15:21:00,
2013-05-01 10:33:00,63.0,51.0,29.95,NE,45,3.0,8.0,64,0.00,,,0.00,,2013-05-01 15:33:00,
2013-05-01 10:43:00,63.0,51.0,29.95,NE,45,3.0,8.0,64,0.00,,,0.00,,2013-05-01 15:43:00,
2013-05-01 10:53:00,63.0,51.0,29.95,NE,45,3.0,8.0,64,0.00,,,0.00,,2013-05-01 15:53:00,
2013-05-01 11:03:00,64.0,51.0,29.96,North,351,3.0,8.0,62,0.00,,,0.00,,2013-05-01 16:03:00,
2013-05-01 11:12:00,64.0,51.0,29.96,North,351,3.0,8.0,62,0.00,,,0.00,,2013-05-01 16:12:00,
2013-05-01 11:22:00,64.0,50.0,29.98,SE,130,4.0,10.0,61,0.00,,,0.00,,2013-05-01 16:22:00,
2013-05-01 11:32:00,64.0,50.0,29.98,SE,130,4.0,10.0,61,0.00,,,0.00,,2013-05-01 16:32:00,
2013-05-01 11:42:00,64.0,50.0,29.98,SE,130,4.0,10.0,61,0.00,,,0.00,,2013-05-01 16:42:00,
2013-05-01 11:53:00,63.0,51.0,29.98,East,100,8.0,15.0,64,0.00,,,0.00,,2013-05-01 16:53:00,
2013-05-01 12:02:00,63.0,51.0,29.98,East,94,8.0,14.0,64,0.00,,,0.00,,2013-05-01 17:02:00,
2013-05-01 12:12:00,63.0,51.0,29.98,East,94,8.0,14.0,64,0.00,,,0.00,,2013-05-01 17:12:00,
2013-05-01 12:21:00,63.0,51.0,29.98,East,94,8.0,14.0,64,0.00,,,0.00,,2013-05-01 17:21:00,
2013-05-01 12:32:00,63.0,51.0,29.98,East,94,8.0,14.0,64,0.00,,,0.00,,2013-05-01 17:32:00,
2013-05-01 12:42:00,62.0,49.0,29.98,East,91,9.0,16.0,62,0.00,,,0.00,,2013-05-01 17:42:00,
2013-05-01 12:52:00,62.0,49.0,29.98,East,91,9.0,16.0,62,0.00,,,0.00,,2013-05-01 17:52:00,
2013-05-01 13:01:00,62.0,50.0,29.99,ESE,112,6.0,13.0,64,0.00,,,0.00,,2013-05-01 18:01:00,
2013-05-01 13:11:00,62.0,50.0,29.99,ESE,112,6.0,13.0,64,0.00,,,0.00,,2013-05-01 18:11:00,
2013-05-01 13:22:00,61.0,49.0,29.99,ESE,119,6.0,14.0,65,0.00,,,0.00,,2013-05-01 18:22:00,
2013-05-01 13:32:00,62.0,50.0,30.00,ESE,112,6.0,13.0,64,0.00,,,0.00,,2013-05-01 18:32:00,
2013-05-01 13:41:00,62.0,50.0,30.00,ESE,112,6.0,13.0,64,0.00,,,0.00,,2013-05-01 18:41:00,
2013-05-01 13:52:00,62.0,48.0,29.99,ESE,111,8.0,13.0,61,0.00,,,0.00,,2013-05-01 18:52:00,
2013-05-01 14:02:00,63.0,48.0,30.00,ESE,103,6.0,15.0,58,0.00,,,0.00,,2013-05-01 19:02:00,
2013-05-01 14:11:00,63.0,48.0,30.00,ESE,103,6.0,15.0,58,0.00,,,0.00,,2013-05-01 19:11:00,
2013-05-01 14:22:00,64.0,47.0,30.01,East,88,5.0,14.0,55,0.00,,,0.00,,2013-05-01 19:22:00,
2013-05-01 14:32:00,64.0,48.0,30.01,ENE,75,8.0,16.0,56,0.00,,,0.00,,2013-05-01 19:32:00,
2013-05-01 14:42:00,64.0,48.0,30.01,ENE,75,8.0,16.0,56,0.00,,,0.00,,2013-05-01 19:42:00,
2013-05-01 14:52:00,64.0,48.0,30.01,ENE,75,8.0,16.0,56,0.00,,,0.00,,2013-05-01 19:52:00,
2013-05-01 15:01:00,65.0,47.0,30.01,East,86,7.0,14.0,53,0.00,,,0.00,,2013-05-01 20:01:00,
2013-05-01 15:11:00,65.0,47.0,30.01,East,86,7.0,14.0,53,0.00,,,0.00,,2013-05-01 20:11:00,
2013-05-01 15:21:00,65.0,46.0,30.02,ENE,74,8.0,17.0,51,0.00,,,0.00,,2013-05-01 20:21:00,
2013-05-01 15:32:00,66.0,47.0,30.02,East,86,8.0,17.0,51,0.00,,,0.00,,2013-05-01 20:32:00,
2013-05-01 15:42:00,66.0,47.0,30.02,East,86,8.0,17.0,51,0.00,,,0.00,,2013-05-01 20:42:00,
2013-05-01 15:52:00,66.0,47.0,30.02,East,83,8.0,16.0,50,0.00,,,0.00,,2013-05-01 20:52:00,
2013-05-01 16:01:00,66.0,47.0,30.02,East,83,8.0,16.0,50,0.00,,,0.00,,2013-05-01 21:01:00,
2013-05-01 16:11:00,66.0,47.0,30.02,East,83,8.0,16.0,50,0.00,,,0.00,,2013-05-01 21:11:00,
2013-05-01 16:22:00,64.0,44.0,30.03,ENE,70,11.0,22.0,48,0.00,,,0.00,,2013-05-01 21:22:00,
2013-05-01 16:32:00,64.0,43.0,30.04,ENE,69,10.0,21.0,47,0.00,,,0.00,,2013-05-01 21:32:00,
2013-05-01 16:43:00,64.0,43.0,30.04,ENE,69,10.0,21.0,47,0.00,,,0.00,,2013-05-01 21:43:00,
2013-05-01 16:53:00,64.0,43.0,30.04,ENE,69,10.0,21.0,47,0.00,,,0.00,,2013-05-01 21:53:00,
2013-05-01 17:03:00,63.0,45.0,30.04,East,83,9.0,17.0,51,0.00,,,0.00,,2013-05-01 22:03:00,
2013-05-01 17:12:00,63.0,45.0,30.04,East,83,9.0,17.0,51,0.00,,,0.00,,2013-05-01 22:12:00,
2013-05-01 17:23:00,63.0,42.0,30.04,East,90,7.0,14.0,47,0.00,,,0.00,,2013-05-01 22:23:00,
2013-05-01 17:33:00,63.0,42.0,30.05,East,87,8.0,16.0,47,0.00,,,0.00,,2013-05-01 22:33:00,
2013-05-01 17:42:00,63.0,42.0,30.05,East,87,8.0,16.0,47,0.00,,,0.00,,2013-05-01 22:42:00,
2013-05-01 17:52:00,63.0,42.0,30.05,East,87,8.0,16.0,47,0.00,,,0.00,,2013-05-01 22:52:00,
2013-05-01 18:02:00,63.0,42.0,30.05,East,87,7.0,14.0,47,0.00,,,0.00,,2013-05-01 23:02:00,
2013-05-01 18:12:00,63.0,42.0,30.05,East,87,7.0,14.0,47,0.00,,,0.00,,2013-05-01 23:12:00,
2013-05-01 18:21:00,61.0,41.0,30.06,East,90,5.0,13.0,48,0.00,,,0.00,,2013-05-01 23:21:00,
2013-05-01 18:32:00,60.0,40.0,30.06,East,80,6.0,13.0,48,0.00,,,0.00,,2013-05-01 23:32:00,
2013-05-01 18:42:00,60.0,40.0,30.06,East,80,6.0,13.0,48,0.00,,,0.00,,2013-05-01 23:42:00,
2013-05-01 18:52:00,59.0,41.0,30.06,ENE,78,4.0,11.0,52,0.00,,,0.00,,2013-05-01 23:52:00,
2013-05-01 19:01:00,58.0,41.0,30.07,ENE,61,3.0,10.0,54,0.00,,,0.00,,2013-05-02 00:01:00,
2013-05-01 19:11:00,58.0,41.0,30.07,ENE,61,3.0,10.0,54,0.00,,,0.00,,2013-05-02 00:11:00,
2013-05-01 19:21:00,57.0,40.0,30.07,ENE,69,7.0,13.0,52,0.00,,,0.00,,2013-05-02 00:21:00,
2013-05-01 19:32:00,57.0,40.0,30.09,ENE,65,5.0,12.0,53,0.00,,,0.00,,2013-05-02 00:32:00,
2013-05-01 19:41:00,57.0,40.0,30.09,ENE,65,5.0,12.0,53,0.00,,,0.00,,2013-05-02 00:41:00,
2013-05-01 19:52:00,55.0,39.0,30.09,ENE,57,7.0,17.0,55,0.00,,,0.00,,2013-05-02 00:52:00,
2013-05-01 20:01:00,54.0,38.0,30.09,ENE,69,6.0,12.0,55,0.00,,,0.00,,2013-05-02 01:01:00,
2013-05-01 20:11:00,54.0,38.0,30.09,ENE,69,6.0,12.0,55,0.00,,,0.00,,2013-05-02 01:11:00,
2013-05-01 20:21:00,53.0,38.0,30.09,ENE,60,7.0,17.0,56,0.00,,,0.00,,2013-05-02 01:21:00,
2013-05-01 20:32:00,53.0,38.0,30.09,ENE,60,7.0,17.0,56,0.00,,,0.00,,2013-05-02 01:32:00,
2013-05-01 20:42:00,53.0,38.0,30.09,ENE,60,7.0,17.0,56,0.00,,,0.00,,2013-05-02 01:42:00,
2013-05-01 20:52:00,53.0,38.0,30.09,ENE,60,7.0,17.0,56,0.00,,,0.00,,2013-05-02 01:52:00,
2013-05-01 21:02:00,49.0,36.0,30.11,ENE,57,8.0,20.0,61,0.00,,,0.00,,2013-05-02 02:02:00,
2013-05-01 21:12:00,49.0,36.0,30.11,ENE,57,8.0,20.0,61,0.00,,,0.00,,2013-05-02 02:12:00,
2013-05-01 21:21:00,49.0,36.0,30.11,ENE,57,8.0,20.0,61,0.00,,,0.00,,2013-05-02 02:21:00,
2013-05-01 21:32:00,49.0,36.0,30.11,ENE,57,8.0,20.0,61,0.00,,,0.00,,2013-05-02 02:32:00,
2013-05-01 21:42:00,49.0,36.0,30.11,ENE,57,8.0,20.0,61,0.00,,,0.00,,2013-05-02 02:42:00,